| time (UTC) | temp F | wind direction | speed knots | gust knots | rain 1hr in | rain 24hr in | rain mn in | humidity % | barometer mb |
| 20260903165040 | 69 | 241 | 0.9 | 3.5 | 0.00 | 0.00 | 0.00 | 81 | 1014.5 |
| 20260903164602 | 68 | 236 | 0.0 | 2.6 | 0.00 | 0.00 | 0.00 | 82 | 1014.6 |
| 20260903164036 | 68 | 0 | 0.0 | 2.6 | 0.00 | 0.00 | 0.00 | 83 | 1014.6 |
| 20260903163533 | 68 | 0 | 0.9 | 4.3 | 0.00 | 0.00 | 0.00 | 83 | 1014.6 |
| 20260903163102 | 68 | 0 | 0.9 | 4.3 | 0.00 | 0.00 | 0.00 | 84 | 1014.6 |
| 20260903162535 | 67 | 0 | 0.9 | 2.6 | 0.00 | 0.00 | 0.00 | 85 | 1014.7 |
| 20260903162032 | 67 | 0 | 0.0 | 2.6 | 0.00 | 0.00 | 0.00 | 85 | 1014.6 |
| 20260903161614 | 67 | 219 | 0.0 | 2.6 | 0.00 | 0.00 | 0.00 | 86 | 1014.6 |
| 20260903161039 | 66 | 204 | 0.0 | 1.7 | 0.00 | 0.00 | 0.00 | 86 | 1014.6 |
| 20260903160533 | 66 | 0 | 0.0 | 2.6 | 0.00 | 0.00 | 0.00 | 87 | 1014.6 |
| 20260903155536 | 66 | 227 | 0.9 | 2.6 | 0.00 | 0.00 | 0.00 | 87 | 1014.7 |
| 20260903155032 | 65 | 0 | 0.0 | 1.7 | 0.00 | 0.00 | 0.00 | 87 | 1014.7 |
| 20260903154602 | 65 | 0 | 0.0 | 1.7 | 0.00 | 0.00 | 0.00 | 88 | 1014.8 |
| 20260903154037 | 65 | 0 | 0.0 | 0.9 | 0.00 | 0.00 | 0.00 | 88 | 1014.8 |
| 20260903153535 | 64 | 0 | 0.0 | 0.9 | 0.00 | 0.00 | 0.00 | 88 | 1014.9 |
| 20260903153100 | 64 | 0 | 0.0 | 0.9 | 0.00 | 0.00 | 0.00 | 88 | 1014.8 |
| 20260903152535 | 64 | 0 | 0.0 | 0.9 | 0.00 | 0.00 | 0.00 | 88 | 1014.8 |
| 20260903152036 | 64 | 0 | 0.0 | 0.9 | 0.00 | 0.00 | 0.00 | 88 | 1014.7 |
| 20260903151604 | 64 | 0 | 0.0 | 0.9 | 0.00 | 0.00 | 0.00 | 89 | 1014.8 |
| 20260903151036 | 63 | 0 | 0.0 | 0.9 | 0.00 | 0.00 | 0.00 | 89 | 1014.8 |
| 20260903150535 | 63 | 0 | 0.0 | 0.9 | 0.00 | 0.00 | 0.00 | 89 | 1014.7 |
| 20260903150054 | 63 | 0 | 0.0 | 0.9 | 0.00 | 0.00 | 0.00 | 89 | 1014.7 |
| 20260903145531 | 63 | 0 | 0.0 | 0.9 | 0.00 | 0.00 | 0.00 | 89 | 1014.8 |
| 20260903145031 | 63 | 0 | 0.0 | 0.9 | 0.00 | 0.00 | 0.00 | 89 | 1014.7 |
| 20260903144559 | 63 | 0 | 0.0 | 0.9 | 0.00 | 0.00 | 0.00 | 89 | 1014.7 |
| 20260903144036 | 62 | 0 | 0.0 | 0.9 | 0.00 | 0.00 | 0.00 | 89 | 1014.7 |
| 20260903143532 | 62 | 0 | 0.0 | 0.9 | 0.00 | 0.00 | 0.00 | 89 | 1014.7 |
| 20260903143101 | 62 | 0 | 0.0 | 0.9 | 0.00 | 0.00 | 0.00 | 89 | 1014.6 |
| 20260903142539 | 62 | 0 | 0.0 | 0.9 | 0.00 | 0.00 | 0.00 | 89 | 1014.5 |
| 20260903142035 | 62 | 0 | 0.0 | 0.9 | 0.00 | 0.00 | 0.00 | 89 | 1014.5 |
| 20260903141600 | 62 | 0 | 0.0 | 0.9 | 0.00 | 0.00 | 0.00 | 89 | 1014.5 |
| 20260903141037 | 62 | 0 | 0.0 | 0.9 | 0.00 | 0.00 | 0.00 | 89 | 1014.4 |
| 20260903140533 | 62 | 0 | 0.0 | 0.9 | 0.00 | 0.00 | 0.00 | 89 | 1014.5 |
| 20260903140109 | 61 | 0 | 0.0 | 0.9 | 0.00 | 0.00 | 0.00 | 89 | 1014.3 |
| 20260903135535 | 62 | 155 | 0.0 | 0.9 | 0.00 | 0.00 | 0.00 | 89 | 1014.2 |
| 20260903135035 | 61 | 0 | 0.0 | 0.9 | 0.00 | 0.00 | 0.00 | 89 | 1014.2 |
| 20260903134605 | 61 | 0 | 0.0 | 0.0 | 0.00 | 0.00 | 0.00 | 89 | 1014.1 |
| 20260903134031 | 61 | 0 | 0.0 | 0.9 | 0.00 | 0.00 | 0.00 | 89 | 1014.1 |
| 20260903133532 | 61 | 0 | 0.0 | 0.9 | 0.00 | 0.00 | 0.00 | 89 | 1014.1 |
| 20260903133103 | 61 | 0 | 0.0 | 0.9 | 0.00 | 0.00 | 0.00 | 88 | 1014.1 |
| 20260903132533 | 62 | 0 | 0.0 | 0.9 | 0.00 | 0.00 | 0.00 | 88 | 1014.0 |
| 20260903132032 | 62 | 0 | 0.0 | 0.9 | 0.00 | 0.00 | 0.00 | 88 | 1014.0 |
| 20260903131601 | 62 | 0 | 0.0 | 0.9 | 0.00 | 0.00 | 0.00 | 88 | 1013.9 |
| 20260903131033 | 62 | 0 | 0.0 | 0.9 | 0.00 | 0.00 | 0.00 | 88 | 1014.0 |
| 20260903130536 | 62 | 0 | 0.0 | 0.9 | 0.00 | 0.00 | 0.00 | 88 | 1014.0 |
| 20260903125532 | 62 | 0 | 0.0 | 0.9 | 0.00 | 0.00 | 0.00 | 88 | 1014.0 |
| 20260903125032 | 62 | 0 | 0.0 | 0.9 | 0.00 | 0.00 | 0.00 | 88 | 1014.0 |
| 20260903124605 | 62 | 0 | 0.0 | 0.9 | 0.00 | 0.00 | 0.00 | 88 | 1014.0 |
| 20260903124031 | 62 | 0 | 0.0 | 0.9 | 0.00 | 0.00 | 0.00 | 88 | 1014.0 |
| 20260903123531 | 62 | 0 | 0.0 | 0.9 | 0.00 | 0.00 | 0.00 | 88 | 1014.0 |
| 20260903123103 | 62 | 0 | 0.0 | 0.9 | 0.00 | 0.00 | 0.00 | 88 | 1013.8 |
| 20260903122535 | 62 | 0 | 0.0 | 0.9 | 0.00 | 0.00 | 0.00 | 88 | 1013.8 |
| 20260903122032 | 62 | 0 | 0.0 | 0.9 | 0.00 | 0.00 | 0.00 | 88 | 1013.8 |
| 20260903121601 | 62 | 0 | 0.0 | 0.9 | 0.00 | 0.00 | 0.00 | 88 | 1013.8 |
| 20260903121038 | 62 | 0 | 0.0 | 0.9 | 0.00 | 0.00 | 0.00 | 88 | 1013.8 |
| 20260903120535 | 62 | 0 | 0.0 | 0.9 | 0.00 | 0.00 | 0.00 | 88 | 1013.8 |
| 20260903120052 | 62 | 0 | 0.0 | 0.9 | 0.00 | 0.00 | 0.00 | 88 | 1013.8 |
| 20260903115532 | 62 | 0 | 0.0 | 0.9 | 0.00 | 0.00 | 0.00 | 88 | 1013.9 |
| 20260903115031 | 62 | 0 | 0.0 | 0.9 | 0.00 | 0.00 | 0.00 | 88 | 1013.9 |
| 20260903114553 | 62 | 0 | 0.0 | 0.9 | 0.00 | 0.00 | 0.00 | 88 | 1014.0 |
| 20260903114035 | 62 | 0 | 0.0 | 0.9 | 0.00 | 0.00 | 0.00 | 88 | 1014.0 |
| 20260903113531 | 62 | 0 | 0.0 | 0.0 | 0.00 | 0.00 | 0.00 | 88 | 1013.9 |
| 20260903113100 | 62 | 0 | 0.0 | 0.0 | 0.00 | 0.00 | 0.00 | 88 | 1014.0 |
| 20260903112535 | 62 | 0 | 0.0 | 0.0 | 0.00 | 0.00 | 0.00 | 88 | 1013.9 |
| 20260903112034 | 62 | 0 | 0.0 | 0.0 | 0.00 | 0.00 | 0.00 | 88 | 1013.9 |
| 20260903111557 | 63 | 0 | 0.0 | 0.0 | 0.00 | 0.00 | 0.00 | 88 | 1014.0 |
| 20260903111032 | 63 | 0 | 0.0 | 0.0 | 0.00 | 0.00 | 0.00 | 88 | 1013.9 |
| 20260903110535 | 63 | 0 | 0.0 | 0.0 | 0.00 | 0.00 | 0.00 | 88 | 1014.0 |
| 20260903110053 | 63 | 0 | 0.0 | 0.0 | 0.00 | 0.00 | 0.00 | 88 | 1014.0 |
| 20260903105532 | 63 | 0 | 0.0 | 0.0 | 0.00 | 0.00 | 0.00 | 88 | 1014.0 |
| 20260903105032 | 63 | 0 | 0.0 | 0.0 | 0.00 | 0.00 | 0.00 | 88 | 1014.0 |
| 20260903104551 | 63 | 0 | 0.0 | 0.0 | 0.00 | 0.00 | 0.00 | 87 | 1014.1 |
| 20260903104035 | 63 | 0 | 0.0 | 0.0 | 0.00 | 0.00 | 0.00 | 87 | 1014.1 |
| 20260903103531 | 63 | 0 | 0.0 | 0.0 | 0.00 | 0.00 | 0.00 | 87 | 1014.1 |
| 20260903103101 | 63 | 0 | 0.0 | 0.0 | 0.00 | 0.00 | 0.00 | 87 | 1014.1 |
| 20260903102530 | 63 | 0 | 0.0 | 0.0 | 0.00 | 0.00 | 0.00 | 88 | 1014.2 |
| 20260903102032 | 63 | 0 | 0.0 | 0.0 | 0.00 | 0.00 | 0.00 | 87 | 1014.2 |
| 20260903101558 | 63 | 0 | 0.0 | 0.0 | 0.00 | 0.00 | 0.00 | 87 | 1014.3 |
| 20260903101032 | 63 | 0 | 0.0 | 0.0 | 0.00 | 0.00 | 0.00 | 87 | 1014.3 |
| 20260903100532 | 63 | 0 | 0.0 | 0.9 | 0.00 | 0.00 | 0.00 | 87 | 1014.4 |
| 20260903100054 | 63 | 0 | 0.0 | 0.9 | 0.00 | 0.00 | 0.00 | 87 | 1014.4 |
| 20260903095535 | 63 | 0 | 0.0 | 0.9 | 0.00 | 0.00 | 0.00 | 87 | 1014.5 |
| 20260903095034 | 63 | 0 | 0.0 | 0.9 | 0.00 | 0.00 | 0.00 | 87 | 1014.5 |
| 20260903094604 | 63 | 0 | 0.0 | 0.9 | 0.00 | 0.00 | 0.00 | 87 | 1014.5 |
| 20260903094033 | 63 | 0 | 0.0 | 0.9 | 0.00 | 0.00 | 0.00 | 87 | 1014.6 |
| 20260903093536 | 64 | 0 | 0.0 | 0.9 | 0.00 | 0.00 | 0.00 | 87 | 1014.6 |
| 20260903093100 | 64 | 0 | 0.0 | 0.9 | 0.00 | 0.00 | 0.00 | 87 | 1014.7 |
| 20260903092532 | 64 | 0 | 0.0 | 0.0 | 0.00 | 0.00 | 0.00 | 87 | 1014.7 |
| 20260903092033 | 64 | 0 | 0.0 | 0.0 | 0.00 | 0.00 | 0.00 | 87 | 1014.7 |
| 20260903091600 | 64 | 0 | 0.0 | 0.9 | 0.00 | 0.00 | 0.00 | 87 | 1014.8 |
| 20260903091036 | 64 | 0 | 0.0 | 0.9 | 0.00 | 0.00 | 0.00 | 87 | 1014.7 |
| 20260903090535 | 64 | 0 | 0.0 | 0.9 | 0.00 | 0.00 | 0.00 | 87 | 1014.7 |
| 20260903090054 | 64 | 0 | 0.0 | 0.9 | 0.00 | 0.00 | 0.00 | 87 | 1014.7 |
| 20260903085531 | 64 | 0 | 0.0 | 0.9 | 0.00 | 0.00 | 0.00 | 87 | 1014.8 |
| 20260903085032 | 64 | 0 | 0.0 | 0.9 | 0.00 | 0.00 | 0.00 | 87 | 1014.9 |
| 20260903084554 | 64 | 0 | 0.0 | 0.9 | 0.00 | 0.00 | 0.00 | 87 | 1014.9 |
| 20260903084031 | 64 | 0 | 0.0 | 0.0 | 0.00 | 0.00 | 0.00 | 86 | 1014.9 |
| 20260903083532 | 64 | 0 | 0.0 | 0.0 | 0.00 | 0.00 | 0.00 | 87 | 1014.9 |
| 20260903083057 | 64 | 0 | 0.0 | 0.9 | 0.00 | 0.00 | 0.00 | 86 | 1015.0 |
| 20260903082535 | 64 | 0 | 0.0 | 0.9 | 0.00 | 0.00 | 0.00 | 86 | 1015.0 |
| 20260903082031 | 64 | 0 | 0.0 | 0.9 | 0.00 | 0.00 | 0.00 | 86 | 1015.1 |
| 20260903081556 | 64 | 0 | 0.0 | 0.9 | 0.00 | 0.00 | 0.00 | 86 | 1015.1 |
| 20260903081034 | 64 | 0 | 0.0 | 0.0 | 0.00 | 0.00 | 0.00 | 86 | 1015.1 |
| 20260903080535 | 64 | 0 | 0.0 | 0.0 | 0.00 | 0.00 | 0.00 | 86 | 1015.1 |
| 20260903080100 | 64 | 0 | 0.0 | 0.0 | 0.00 | 0.00 | 0.00 | 86 | 1015.1 |
| 20260903075532 | 64 | 0 | 0.0 | 0.9 | 0.00 | 0.00 | 0.00 | 86 | 1015.1 |
| 20260903075034 | 64 | 0 | 0.0 | 0.9 | 0.00 | 0.00 | 0.00 | 86 | 1015.2 |
| 20260903074603 | 65 | 0 | 0.0 | 0.9 | 0.00 | 0.00 | 0.00 | 86 | 1015.2 |
| 20260903074031 | 65 | 0 | 0.0 | 0.0 | 0.00 | 0.00 | 0.00 | 86 | 1015.2 |
| 20260903073536 | 65 | 0 | 0.0 | 0.0 | 0.00 | 0.00 | 0.00 | 86 | 1015.2 |
| 20260903073110 | 65 | 0 | 0.0 | 0.0 | 0.00 | 0.00 | 0.00 | 85 | 1015.1 |
| 20260903072535 | 65 | 0 | 0.0 | 0.0 | 0.00 | 0.00 | 0.00 | 85 | 1015.2 |
| 20260903072031 | 65 | 0 | 0.0 | 0.0 | 0.00 | 0.00 | 0.00 | 85 | 1015.1 |
| 20260903071559 | 65 | 0 | 0.0 | 0.0 | 0.00 | 0.00 | 0.00 | 85 | 1015.2 |
| 20260903071032 | 65 | 0 | 0.0 | 0.0 | 0.00 | 0.00 | 0.00 | 85 | 1015.2 |
| 20260903070536 | 65 | 0 | 0.0 | 0.9 | 0.00 | 0.00 | 0.00 | 85 | 1015.2 |
| 20260903070058 | 65 | 0 | 0.0 | 0.9 | 0.00 | 0.00 | 0.00 | 85 | 1015.2 |
| 20260903065532 | 65 | 0 | 0.0 | 0.0 | 0.00 | 0.00 | 0.00 | 85 | 1015.2 |
| 20260903065031 | 65 | 0 | 0.0 | 0.0 | 0.00 | 0.00 | 0.00 | 85 | 1015.1 |
| 20260903064603 | 65 | 0 | 0.0 | 0.9 | 0.00 | 0.00 | 0.00 | 84 | 1015.2 |
| 20260903064031 | 66 | 0 | 0.0 | 0.9 | 0.00 | 0.00 | 0.00 | 84 | 1015.1 |
| 20260903063532 | 66 | 0 | 0.0 | 0.9 | 0.00 | 0.00 | 0.00 | 84 | 1015.1 |
| 20260903063125 | 66 | 0 | 0.0 | 0.9 | 0.00 | 0.00 | 0.00 | 84 | 1015.2 |
| 20260903062535 | 66 | 0 | 0.0 | 0.9 | 0.00 | 0.00 | 0.00 | 84 | 1015.2 |
| 20260903062034 | 66 | 0 | 0.0 | 0.0 | 0.00 | 0.00 | 0.00 | 84 | 1015.2 |
| 20260903061556 | 66 | 0 | 0.0 | 0.0 | 0.00 | 0.00 | 0.00 | 84 | 1015.2 |
| 20260903061031 | 66 | 0 | 0.0 | 0.0 | 0.00 | 0.00 | 0.00 | 84 | 1015.2 |
| 20260903060533 | 66 | 0 | 0.0 | 0.9 | 0.00 | 0.00 | 0.00 | 84 | 1015.2 |
| 20260903060104 | 66 | 0 | 0.0 | 0.9 | 0.00 | 0.00 | 0.00 | 84 | 1015.3 |
| 20260903055533 | 66 | 0 | 0.0 | 0.0 | 0.00 | 0.00 | 0.00 | 83 | 1015.3 |
| 20260903055032 | 67 | 0 | 0.0 | 0.9 | 0.00 | 0.00 | 0.00 | 83 | 1015.3 |
| 20260903054602 | 67 | 0 | 0.0 | 0.9 | 0.00 | 0.00 | 0.00 | 83 | 1015.3 |
| 20260903054034 | 67 | 0 | 0.0 | 0.9 | 0.00 | 0.00 | 0.00 | 83 | 1015.3 |
| 20260903053536 | 67 | 0 | 0.0 | 0.9 | 0.00 | 0.00 | 0.00 | 82 | 1015.4 |
| 20260903053059 | 67 | 0 | 0.0 | 0.9 | 0.00 | 0.00 | 0.00 | 82 | 1015.4 |
| 20260903052532 | 67 | 0 | 0.0 | 0.9 | 0.00 | 0.00 | 0.00 | 82 | 1015.4 |
| 20260903052032 | 67 | 0 | 0.0 | 0.9 | 0.00 | 0.00 | 0.00 | 82 | 1015.4 |
| 20260903051555 | 67 | 0 | 0.0 | 0.0 | 0.00 | 0.00 | 0.00 | 82 | 1015.4 |
| 20260903051032 | 67 | 0 | 0.0 | 0.0 | 0.00 | 0.00 | 0.00 | 82 | 1015.5 |
| 20260903050534 | 67 | 0 | 0.0 | 0.0 | 0.00 | 0.00 | 0.00 | 81 | 1015.5 |
| 20260903050055 | 67 | 0 | 0.0 | 0.0 | 0.00 | 0.00 | 0.00 | 81 | 1015.5 |
| 20260903045532 | 68 | 0 | 0.0 | 0.0 | 0.00 | 0.00 | 0.00 | 81 | 1015.5 |
| 20260903045032 | 68 | 0 | 0.0 | 0.0 | 0.00 | 0.00 | 0.00 | 81 | 1015.4 |
| 20260903044550 | 68 | 0 | 0.0 | 0.0 | 0.00 | 0.00 | 0.00 | 81 | 1015.4 |
| 20260903044032 | 68 | 0 | 0.0 | 0.0 | 0.00 | 0.00 | 0.00 | 81 | 1015.4 |
| 20260903043532 | 68 | 0 | 0.0 | 0.0 | 0.00 | 0.00 | 0.00 | 81 | 1015.4 |
| 20260903043111 | 68 | 0 | 0.0 | 0.0 | 0.00 | 0.00 | 0.00 | 81 | 1015.4 |
| 20260903042536 | 68 | 0 | 0.0 | 0.0 | 0.00 | 0.00 | 0.00 | 81 | 1015.4 |
| 20260903042036 | 68 | 0 | 0.0 | 0.0 | 0.00 | 0.00 | 0.00 | 81 | 1015.4 |
| 20260903041556 | 69 | 0 | 0.0 | 0.0 | 0.00 | 0.00 | 0.00 | 81 | 1015.3 |
| 20260903041035 | 69 | 0 | 0.0 | 0.0 | 0.00 | 0.00 | 0.00 | 81 | 1015.3 |
| 20260903040536 | 69 | 0 | 0.0 | 0.0 | 0.00 | 0.00 | 0.00 | 81 | 1015.3 |
| 20260903040110 | 69 | 0 | 0.0 | 0.0 | 0.00 | 0.00 | 0.00 | 81 | 1015.2 |
| 20260903035536 | 69 | 0 | 0.0 | 0.0 | 0.00 | 0.00 | 0.00 | 81 | 1015.1 |
| 20260903035036 | 69 | 0 | 0.0 | 0.0 | 0.00 | 0.00 | 0.00 | 81 | 1015.0 |
| 20260903034600 | 69 | 0 | 0.0 | 0.0 | 0.00 | 0.00 | 0.00 | 80 | 1015.0 |
| 20260903034036 | 69 | 0 | 0.0 | 0.0 | 0.00 | 0.00 | 0.00 | 80 | 1014.9 |
| 20260903033536 | 69 | 0 | 0.0 | 0.0 | 0.00 | 0.00 | 0.00 | 81 | 1014.9 |
| 20260903033100 | 69 | 0 | 0.0 | 0.0 | 0.00 | 0.00 | 0.00 | 80 | 1015.0 |
| 20260903032536 | 69 | 0 | 0.0 | 0.0 | 0.00 | 0.00 | 0.00 | 80 | 1014.8 |
| 20260903032037 | 69 | 0 | 0.0 | 0.0 | 0.00 | 0.00 | 0.00 | 80 | 1014.8 |
| 20260903031602 | 69 | 0 | 0.0 | 0.0 | 0.00 | 0.00 | 0.00 | 80 | 1014.6 |
| 20260903031035 | 69 | 0 | 0.0 | 0.0 | 0.00 | 0.00 | 0.00 | 80 | 1014.5 |
| 20260903030538 | 69 | 0 | 0.0 | 0.0 | 0.00 | 0.00 | 0.00 | 80 | 1014.4 |
| 20260903030110 | 69 | 0 | 0.0 | 0.0 | 0.00 | 0.00 | 0.00 | 80 | 1014.4 |
| 20260903025537 | 70 | 0 | 0.0 | 0.0 | 0.00 | 0.00 | 0.00 | 79 | 1014.4 |
| 20260903025036 | 70 | 0 | 0.0 | 0.0 | 0.00 | 0.00 | 0.00 | 79 | 1014.4 |
| 20260903024557 | 70 | 0 | 0.0 | 0.9 | 0.00 | 0.00 | 0.00 | 80 | 1014.4 |
| 20260903024035 | 70 | 0 | 0.0 | 0.9 | 0.00 | 0.00 | 0.00 | 79 | 1014.4 |
| 20260903023536 | 70 | 0 | 0.0 | 1.7 | 0.00 | 0.00 | 0.00 | 79 | 1014.4 |
| 20260903023107 | 70 | 0 | 0.0 | 1.7 | 0.00 | 0.00 | 0.00 | 79 | 1014.4 |
| 20260903022536 | 70 | 227 | 0.0 | 2.6 | 0.00 | 0.00 | 0.00 | 79 | 1014.4 |
| 20260903022038 | 71 | 227 | 0.0 | 3.5 | 0.00 | 0.00 | 0.00 | 78 | 1014.5 |
| 20260903021603 | 71 | 284 | 0.9 | 3.5 | 0.00 | 0.00 | 0.00 | 78 | 1014.5 |
| 20260903021036 | 71 | 300 | 0.0 | 2.6 | 0.00 | 0.00 | 0.00 | 77 | 1014.5 |
| 20260903020535 | 71 | 0 | 0.9 | 2.6 | 0.00 | 0.00 | 0.00 | 77 | 1014.5 |
| 20260903015532 | 71 | 284 | 0.9 | 3.5 | 0.00 | 0.00 | 0.00 | 76 | 1014.5 |
| 20260903015033 | 72 | 298 | 1.7 | 6.1 | 0.00 | 0.00 | 0.00 | 75 | 1014.6 |
| 20260903014600 | 72 | 262 | 0.9 | 6.1 | 0.00 | 0.00 | 0.00 | 75 | 1014.5 |
| 20260903014040 | 72 | 246 | 2.6 | 6.1 | 0.00 | 0.00 | 0.00 | 75 | 1014.5 |
| 20260903013538 | 73 | 0 | 1.7 | 6.1 | 0.00 | 0.00 | 0.00 | 75 | 1014.4 |
| 20260903013105 | 73 | 242 | 2.6 | 6.1 | 0.00 | 0.00 | 0.00 | 75 | 1014.5 |
| 20260903012539 | 73 | 292 | 1.7 | 5.2 | 0.00 | 0.00 | 0.00 | 74 | 1014.5 |
| 20260903012033 | 73 | 221 | 1.7 | 6.1 | 0.00 | 0.00 | 0.00 | 74 | 1014.5 |
| 20260903011610 | 73 | 273 | 2.6 | 7.0 | 0.00 | 0.00 | 0.00 | 73 | 1014.4 |
| 20260903011031 | 73 | 260 | 2.6 | 7.8 | 0.00 | 0.00 | 0.00 | 73 | 1014.3 |
| 20260903010531 | 73 | 259 | 2.6 | 7.8 | 0.00 | 0.00 | 0.00 | 73 | 1014.4 |
| 20260903005530 | 74 | 279 | 2.6 | 7.0 | 0.00 | 0.00 | 0.00 | 72 | 1014.4 |
| 20260903005032 | 74 | 285 | 1.7 | 7.0 | 0.00 | 0.00 | 0.00 | 71 | 1014.3 |
| 20260903004602 | 74 | 299 | 2.6 | 7.0 | 0.00 | 0.00 | 0.00 | 71 | 1014.3 |
| 20260903004032 | 74 | 248 | 3.5 | 6.1 | 0.00 | 0.00 | 0.00 | 71 | 1014.3 |
| 20260903003532 | 75 | 261 | 1.7 | 6.1 | 0.00 | 0.00 | 0.00 | 71 | 1014.3 |
| 20260903003057 | 75 | 226 | 2.6 | 7.0 | 0.00 | 0.00 | 0.00 | 70 | 1014.3 |
| 20260903002532 | 75 | 269 | 2.6 | 7.0 | 0.00 | 0.00 | 0.00 | 69 | 1014.3 |
| 20260903002032 | 75 | 292 | 2.6 | 7.0 | 0.00 | 0.00 | 0.00 | 68 | 1014.3 |
| 20260903001551 | 75 | 288 | 3.5 | 7.0 | 0.00 | 0.00 | 0.00 | 69 | 1014.4 |
| 20260903001031 | 75 | 290 | 2.6 | 7.0 | 0.00 | 0.00 | 0.00 | 69 | 1014.3 |
| 20260903000531 | 75 | 281 | 2.6 | 7.0 | 0.00 | 0.00 | 0.00 | 68 | 1014.4 |
| 20260902235532 | 75 | 290 | 2.6 | 7.8 | 0.00 | 0.00 | 0.00 | 71 | 1014.5 |
| 20260902235031 | 75 | 227 | 2.6 | 7.8 | 0.00 | 0.00 | 0.00 | 71 | 1014.5 |
| 20260902234551 | 75 | 288 | 2.6 | 7.8 | 0.00 | 0.00 | 0.00 | 70 | 1014.5 |
| 20260902234034 | 75 | 243 | 2.6 | 7.8 | 0.00 | 0.00 | 0.00 | 71 | 1014.5 |
| 20260902233531 | 75 | 238 | 2.6 | 9.6 | 0.00 | 0.00 | 0.00 | 70 | 1014.6 |
| 20260902233103 | 75 | 291 | 2.6 | 9.6 | 0.00 | 0.00 | 0.00 | 71 | 1014.7 |
| 20260902232532 | 75 | 273 | 3.5 | 8.7 | 0.00 | 0.00 | 0.00 | 71 | 1014.6 |
| 20260902232033 | 75 | 293 | 2.6 | 8.7 | 0.00 | 0.00 | 0.00 | 71 | 1014.6 |
| 20260902231558 | 75 | 272 | 4.3 | 8.7 | 0.00 | 0.00 | 0.00 | 71 | 1014.7 |
| 20260902231032 | 75 | 244 | 2.6 | 8.7 | 0.00 | 0.00 | 0.00 | 71 | 1014.6 |
| 20260902230535 | 76 | 215 | 3.5 | 8.7 | 0.00 | 0.00 | 0.00 | 71 | 1014.6 |
| 20260902230107 | 76 | 263 | 4.3 | 8.7 | 0.00 | 0.00 | 0.00 | 71 | 1014.8 |
| 20260902225531 | 76 | 259 | 2.6 | 7.8 | 0.00 | 0.00 | 0.00 | 70 | 1014.8 |
| 20260902225032 | 76 | 290 | 3.5 | 7.8 | 0.00 | 0.00 | 0.00 | 71 | 1014.9 |
| 20260902224603 | 76 | 277 | 4.3 | 7.8 | 0.00 | 0.00 | 0.00 | 70 | 1014.9 |
| 20260902224031 | 76 | 270 | 3.5 | 7.8 | 0.00 | 0.00 | 0.00 | 69 | 1015.0 |
| 20260902223531 | 76 | 221 | 3.5 | 7.0 | 0.00 | 0.00 | 0.00 | 70 | 1015.0 |
| 20260902223116 | 76 | 286 | 2.6 | 6.1 | 0.00 | 0.00 | 0.00 | 69 | 1015.0 |
| 20260902222530 | 76 | 283 | 3.5 | 8.7 | 0.00 | 0.00 | 0.00 | 70 | 1015.1 |
| 20260902222034 | 76 | 243 | 3.5 | 8.7 | 0.00 | 0.00 | 0.00 | 70 | 1015.1 |
| 20260902221555 | 76 | 304 | 2.6 | 10.4 | 0.00 | 0.00 | 0.00 | 70 | 1015.1 |
| 20260902221034 | 76 | 262 | 4.3 | 10.4 | 0.00 | 0.00 | 0.00 | 70 | 1015.2 |
| 20260902220532 | 76 | 279 | 3.5 | 8.7 | 0.00 | 0.00 | 0.00 | 69 | 1015.2 |
| 20260902220054 | 76 | 248 | 3.5 | 7.8 | 0.00 | 0.00 | 0.00 | 70 | 1015.2 |
| 20260902215534 | 76 | 287 | 3.5 | 7.8 | 0.00 | 0.00 | 0.00 | 68 | 1015.2 |
| 20260902215032 | 76 | 283 | 3.5 | 7.8 | 0.00 | 0.00 | 0.00 | 69 | 1015.2 |
| 20260902214555 | 76 | 268 | 3.5 | 7.8 | 0.00 | 0.00 | 0.00 | 69 | 1015.2 |
| 20260902214032 | 76 | 269 | 2.6 | 7.8 | 0.00 | 0.00 | 0.00 | 70 | 1015.2 |
| 20260902213532 | 76 | 290 | 2.6 | 8.7 | 0.00 | 0.00 | 0.00 | 70 | 1015.3 |
| 20260902213055 | 76 | 296 | 4.3 | 8.7 | 0.00 | 0.00 | 0.00 | 70 | 1015.3 |
| 20260902212533 | 76 | 306 | 4.3 | 7.8 | 0.00 | 0.00 | 0.00 | 70 | 1015.4 |
| 20260902212033 | 75 | 308 | 3.5 | 8.7 | 0.00 | 0.00 | 0.00 | 71 | 1015.5 |
| 20260902211556 | 75 | 207 | 4.3 | 8.7 | 0.00 | 0.00 | 0.00 | 72 | 1015.5 |
| 20260902211031 | 75 | 249 | 2.6 | 8.7 | 0.00 | 0.00 | 0.00 | 72 | 1015.5 |
| 20260902210532 | 75 | 259 | 4.3 | 8.7 | 0.00 | 0.00 | 0.00 | 71 | 1015.5 |
| 20260902210052 | 75 | 247 | 4.3 | 8.7 | 0.00 | 0.00 | 0.00 | 72 | 1015.5 |
| 20260902205531 | 75 | 299 | 4.3 | 10.4 | 0.00 | 0.00 | 0.00 | 72 | 1015.4 |
| 20260902205034 | 75 | 251 | 3.5 | 10.4 | 0.00 | 0.00 | 0.00 | 72 | 1015.5 |
| 20260902204630 | 75 | 283 | 3.5 | 7.8 | 0.00 | 0.00 | 0.00 | 73 | 1015.5 |
| 20260902204034 | 75 | 289 | 4.3 | 8.7 | 0.00 | 0.00 | 0.00 | 72 | 1015.5 |
| 20260902203534 | 75 | 296 | 3.5 | 8.7 | 0.00 | 0.00 | 0.00 | 73 | 1015.5 |
| 20260902203056 | 75 | 296 | 4.3 | 8.7 | 0.00 | 0.00 | 0.00 | 73 | 1015.5 |
| 20260902202533 | 75 | 303 | 3.5 | 7.8 | 0.00 | 0.00 | 0.00 | 73 | 1015.6 |
| 20260902202034 | 75 | 284 | 4.3 | 7.8 | 0.00 | 0.00 | 0.00 | 73 | 1015.6 |
| 20260902201558 | 75 | 273 | 4.3 | 7.8 | 0.00 | 0.00 | 0.00 | 74 | 1015.7 |
| 20260902201031 | 75 | 259 | 3.5 | 8.7 | 0.00 | 0.00 | 0.00 | 74 | 1015.7 |
| 20260902200532 | 75 | 285 | 3.5 | 8.7 | 0.00 | 0.00 | 0.00 | 74 | 1015.8 |
| 20260902200051 | 75 | 280 | 4.3 | 8.7 | 0.00 | 0.00 | 0.00 | 74 | 1015.9 |
| 20260902195532 | 75 | 306 | 3.5 | 8.7 | 0.00 | 0.00 | 0.00 | 74 | 1015.9 |
| 20260902195034 | 75 | 278 | 3.5 | 8.7 | 0.00 | 0.00 | 0.00 | 74 | 1015.8 |
| 20260902194602 | 75 | 283 | 4.3 | 8.7 | 0.00 | 0.00 | 0.00 | 74 | 1015.8 |
| 20260902194031 | 75 | 230 | 3.5 | 9.6 | 0.00 | 0.00 | 0.00 | 74 | 1015.8 |
| 20260902193532 | 75 | 267 | 4.3 | 9.6 | 0.00 | 0.00 | 0.00 | 74 | 1015.9 |
| 20260902193058 | 75 | 271 | 3.5 | 9.6 | 0.00 | 0.00 | 0.00 | 74 | 1016.0 |
| 20260902192531 | 75 | 263 | 3.5 | 7.0 | 0.00 | 0.00 | 0.00 | 75 | 1016.1 |
| 20260902192032 | 75 | 271 | 3.5 | 7.8 | 0.00 | 0.00 | 0.00 | 75 | 1016.1 |
| 20260902191555 | 75 | 231 | 3.5 | 7.8 | 0.00 | 0.00 | 0.00 | 75 | 1016.1 |
| 20260902191031 | 74 | 249 | 4.3 | 8.7 | 0.00 | 0.00 | 0.00 | 75 | 1016.1 |
| 20260902190535 | 74 | 266 | 3.5 | 8.7 | 0.00 | 0.00 | 0.00 | 75 | 1016.0 |
| 20260902185538 | 74 | 289 | 3.5 | 7.8 | 0.00 | 0.00 | 0.00 | 75 | 1016.0 |
| 20260902185036 | 74 | 294 | 2.6 | 7.0 | 0.00 | 0.00 | 0.00 | 76 | 1016.1 |
| 20260902184605 | 74 | 309 | 2.6 | 6.1 | 0.00 | 0.00 | 0.00 | 76 | 1016.1 |
| 20260902184034 | 74 | 227 | 2.6 | 8.7 | 0.00 | 0.00 | 0.00 | 76 | 1016.2 |
| 20260902183535 | 73 | 243 | 3.5 | 8.7 | 0.00 | 0.00 | 0.00 | 76 | 1016.3 |
| 20260902183112 | 73 | 225 | 2.6 | 9.6 | 0.00 | 0.00 | 0.00 | 76 | 1016.3 |
| 20260902182536 | 73 | 289 | 3.5 | 9.6 | 0.00 | 0.00 | 0.00 | 76 | 1016.4 |
| 20260902182035 | 73 | 251 | 2.6 | 7.0 | 0.00 | 0.00 | 0.00 | 77 | 1016.5 |
| 20260902181612 | 73 | 244 | 2.6 | 7.0 | 0.00 | 0.00 | 0.00 | 77 | 1016.5 |
| 20260902181032 | 73 | 261 | 3.5 | 7.0 | 0.00 | 0.00 | 0.00 | 77 | 1016.6 |
| 20260902180532 | 73 | 291 | 2.6 | 7.0 | 0.00 | 0.00 | 0.00 | 77 | 1016.5 |
| 20260902180057 | 73 | 229 | 2.6 | 6.1 | 0.00 | 0.00 | 0.00 | 78 | 1016.5 |
| 20260902175532 | 73 | 300 | 2.6 | 7.0 | 0.00 | 0.00 | 0.00 | 77 | 1016.5 |
| 20260902175036 | 73 | 284 | 2.6 | 7.0 | 0.00 | 0.00 | 0.00 | 78 | 1016.5 |
| 20260902174602 | 72 | 240 | 2.6 | 7.0 | 0.00 | 0.00 | 0.00 | 79 | 1016.5 |
| 20260902174035 | 72 | 306 | 2.6 | 7.0 | 0.00 | 0.00 | 0.00 | 79 | 1016.4 |
| 20260902173535 | 72 | 308 | 3.5 | 7.0 | 0.00 | 0.00 | 0.00 | 79 | 1016.4 |
| 20260902173114 | 72 | 265 | 2.6 | 7.0 | 0.00 | 0.00 | 0.00 | 79 | 1016.4 |
| 20260902172536 | 72 | 212 | 3.5 | 7.0 | 0.00 | 0.00 | 0.00 | 78 | 1016.4 |
| 20260902172035 | 72 | 252 | 2.6 | 7.0 | 0.00 | 0.00 | 0.00 | 79 | 1016.4 |
| 20260902171606 | 72 | 273 | 2.6 | 7.0 | 0.00 | 0.00 | 0.00 | 79 | 1016.4 |
| 20260902171036 | 71 | 234 | 2.6 | 5.2 | 0.00 | 0.00 | 0.00 | 78 | 1016.3 |
| 20260902170532 | 71 | 255 | 1.7 | 5.2 | 0.00 | 0.00 | 0.00 | 80 | 1016.2 |
| 20260902170057 | 70 | 192 | 0.0 | 4.3 | 0.00 | 0.00 | 0.00 | 81 | 1016.2 |
| 20260902165536 | 70 | 219 | 0.0 | 4.3 | 0.00 | 0.00 | 0.00 | 82 | 1016.1 |